Tracking 29489 objects as of 10-Sep-2024
HD Live streaming from Space Station
objects crossing your sky now

OBJECT H

Track OBJECT H now!
10-day predictions


NORAD ID: 51831
Int'l Code: 2022-019H
Perigee: 494.8 km
Apogee: 510.8 km
Inclination: 97.4 °
Period: 94.5 minutes
Semi major axis: 6873 km
RCS: Unknown
Launch date: February 27, 2022
Source: People's Republic of China (PRC)
Launch site: Wenchang Satellite Launch Center (WSC)
Your satellite tracking list
Your tracking list is empty




NASA's NSSDC Master Catalog

Two Line Element Set (TLE):
1 51831U 22019H   24253.77106280  .00032543  00000-0  13642-2 0  9994
2 51831  97.4284 327.2263 0011622 288.8113  71.1863 15.23381139140289
Source of the keplerian elements: AFSPC